,,Stat6,,Stat2,,Stat8,,Stat9,,Stat10,,Wind1,,Wind1,
time,status,PA1M_AVG,status,PR1M_SUM,status,RH1M_AVG,status,SR1M_AVG,status,TA1M_AVG,status,W1dAve1m,status,W1sAve1m,
2007-11-25, 00:00:01,VALID,918.725,VALID,0,VALID,100,VALID,-0.0169808,VALID,18.5732,VALID,185,VALID,0,
2007-11-25, 00:01:00,VALID,918.725,VALID,0,VALID,100,VALID,-0.0339617,VALID,18.6251,VALID,185,VALID,0,
2007-11-25, 00:02:00,VALID,918.741,VALID,0,VALID,100,VALID,-0.0169808,VALID,18.6408,VALID,185,VALID,0,
2007-11-25, 00:03:00,VALID,918.738,VALID,0,VALID,100,VALID,-0.0169808,VALID,18.6635,VALID,185,VALID,0,
2007-11-25, 00:04:00,VALID,918.739,VALID,0,VALID,100,VALID,0,VALID,18.6702,VALID,185,VALID,0,
2007-11-25, 00:05:00,VALID,918.74,VALID,0,VALID,100,VALID,-0.0169808,VALID,18.644,VALID,185,VALID,0,
2007-11-25, 00:06:00,VALID,918.731,VALID,0,VALID,99.8639,VALID,-0.0169808,VALID,18.6088,VALID,185,VALID,0,
2007-11-25, 00:07:01,VALID,918.727,VALID,0,VALID,99.7192,VALID,0,VALID,18.5662,VALID,185,VALID,0,
2007-11-25, 00:08:01,VALID,918.72,VALID,0,VALID,99.5857,VALID,0,VALID,18.5138,VALID,185,VALID,0,
2007-11-25, 00:09:01,VALID,918.729,VALID,0,VALID,99.7256,VALID,0,VALID,18.4847,VALID,185,VALID,0,
2007-11-25, 00:10:01,VALID,918.738,VALID,0,VALID,99.9598,VALID,-0.0339617,VALID,18.4981,VALID,185,VALID,0,
2007-11-25, 00:11:01,VALID,918.747,VALID,0,VALID,99.9916,VALID,0,VALID,18.5141,VALID,185,VALID,0,
2007-11-25, 00:12:01,VALID,918.757,VALID,0,VALID,99.9443,VALID,-0.0339617,VALID,18.5183,VALID,185,VALID,0,
2007-11-25, 00:13:00,VALID,918.76,VALID,0,VALID,99.9865,VALID,-0.0169808,VALID,18.5278,VALID,185,VALID,0,
2007-11-25, 00:14:00,VALID,918.746,VALID,0,VALID,99.9583,VALID,-0.0169808,VALID,18.5502,VALID,185,VALID,0,
2007-11-25, 00:15:01,VALID,918.732,VALID,0,VALID,99.7014,VALID,-0.0169808,VALID,18.5403,VALID,185,VALID,0,
2007-11-25, 00:16:01,VALID,918.728,VALID,0,VALID,99.6442,VALID,0,VALID,18.5203,VALID,185,VALID,0,
2007-11-25, 00:17:01,VALID,918.715,VALID,0,VALID,99.7561,VALID,-0.0169808,VALID,18.5268,VALID,185,VALID,0,
2007-11-25, 00:18:01,VALID,918.721,VALID,0,VALID,99.826,VALID,0,VALID,18.5368,VALID,185,VALID,0,
2007-11-25, 00:19:01,VALID,918.722,VALID,0,VALID,99.7803,VALID,-0.0169808,VALID,18.5203,VALID,185,VALID,0,
2007-11-25, 00:20:01,VALID,918.726,VALID,0,VALID,99.4382,VALID,0,VALID,18.4816,VALID,185,VALID,0,
2007-11-25, 00:21:01,VALID,918.721,VALID,0,VALID,99.3543,VALID,0,VALID,18.4267,VALID,185,VALID,0,
2007-11-25, 00:22:00,VALID,918.717,VALID,0,VALID,99.4446,VALID,-0.0169808,VALID,18.3843,VALID,185,VALID,0,
2007-11-25, 00:23:00,VALID,918.718,VALID,0,VALID,99.7154,VALID,-0.0169808,VALID,18.3711,VALID,185,VALID,0,
2007-11-25, 00:24:00,VALID,918.702,VALID,0,VALID,99.4776,VALID,-0.0169808,VALID,18.3227,VALID,185,VALID,0,
2007-11-25, 00:25:00,VALID,918.693,VALID,0,VALID,99.7281,VALID,0,VALID,18.3102,VALID,185,VALID,0,
2007-11-25, 00:26:00,VALID,918.658,VALID,0,VALID,99.7116,VALID,0.0169808,VALID,18.2868,VALID,185,VALID,0,
2007-11-25, 00:27:00,VALID,918.643,VALID,0,VALID,99.7141,VALID,0,VALID,18.2512,VALID,185,VALID,0,
2007-11-25, 00:28:00,VALID,918.606,VALID,0,VALID,99.6531,VALID,-0.0339617,VALID,18.2354,VALID,185,VALID,0,
2007-11-25, 00:29:00,VALID,918.59,VALID,0,VALID,99.884,VALID,-0.0169808,VALID,18.2252,VALID,185,VALID,0,
2007-11-25, 00:30:00,VALID,918.585,VALID,0,VALID,100,VALID,0,VALID,18.2972,VALID,185,VALID,0,
2007-11-25, 00:31:00,VALID,918.584,VALID,0,VALID,100,VALID,0,VALID,18.31,VALID,185,VALID,0,
2007-11-25, 00:32:00,VALID,918.604,VALID,0,VALID,100,VALID,-0.0339617,VALID,18.3137,VALID,185,VALID,0,
2007-11-25, 00:33:00,VALID,918.607,VALID,0,VALID,100,VALID,-0.0169808,VALID,18.3332,VALID,185,VALID,0,
2007-11-25, 00:34:00,VALID,918.602,VALID,0,VALID,100,VALID,-0.0169808,VALID,18.3586,VALID,185,VALID,0,
2007-11-25, 00:35:00,VALID,918.594,VALID,0,VALID,100,VALID,-0.0169808,VALID,18.3948,VALID,185,VALID,0,
2007-11-25, 00:36:00,VALID,918.588,VALID,0,VALID,100,VALID,-0.0339617,VALID,18.4362,VALID,185,VALID,0,
2007-11-25, 00:37:00,VALID,918.548,VALID,0,VALID,100,VALID,-0.0169808,VALID,18.4657,VALID,185,VALID,0,
2007-11-25, 00:38:00,VALID,918.529,VALID,0,VALID,100,VALID,-0.0169808,VALID,18.4724,VALID,185,VALID,0,
2007-11-25, 00:39:00,VALID,918.502,VALID,0,VALID,99.7711,VALID,-0.0339617,VALID,18.4365,VALID,185,VALID,0,
2007-11-25, 00:40:00,VALID,918.484,VALID,0,VALID,99.5348,VALID,0,VALID,18.3718,VALID,185,VALID,0,
2007-11-25, 00:41:00,VALID,918.455,VALID,0,VALID,99.4408,VALID,-0.0169808,VALID,18.284,VALID,185,VALID,0,
2007-11-25, 00:42:00,VALID,918.452,VALID,0,VALID,99.5476,VALID,-0.0169808,VALID,18.2386,VALID,185,VALID,0,
2007-11-25, 00:43:00,VALID,918.437,VALID,0,VALID,99.5209,VALID,-0.0169808,VALID,18.1766,VALID,185,VALID,0,
2007-11-25, 00:44:00,VALID,918.415,VALID,0,VALID,99.8044,VALID,0,VALID,18.1835,VALID,185,VALID,0,
2007-11-25, 00:45:00,VALID,918.393,VALID,0,VALID,99.9903,VALID,-0.0169808,VALID,18.206,VALID,184,VALID,0,
2007-11-25, 00:46:00,VALID,918.383,VALID,0,VALID,100,VALID,0,VALID,18.222,VALID,185,VALID,0,
2007-11-25, 00:47:00,VALID,918.37,VALID,0,VALID,100,VALID,-0.0339617,VALID,18.2384,VALID,185,VALID,0,
2007-11-25, 00:48:00,VALID,918.368,VALID,0,VALID,99.9296,VALID,-0.0169808,VALID,18.2317,VALID,185,VALID,0,
2007-11-25, 00:49:00,VALID,918.366,VALID,0,VALID,99.7714,VALID,-0.0169808,VALID,18.206,VALID,184,VALID,0,
2007-11-25, 00:50:00,VALID,918.367,VALID,0,VALID,99.8706,VALID,0,VALID,18.2257,VALID,185,VALID,0,
2007-11-25, 00:51:00,VALID,918.361,VALID,0,VALID,99.7599,VALID,-0.0339617,VALID,18.2227,VALID,185,VALID,0,
2007-11-25, 00:52:00,VALID,918.361,VALID,0,VALID,99.8197,VALID,-0.0169808,VALID,18.2027,VALID,184,VALID,0,
2007-11-25, 00:53:00,VALID,918.355,VALID,0,VALID,99.8769,VALID,-0.0339617,VALID,18.2125,VALID,184,VALID,0,
2007-11-25, 00:54:00,VALID,918.335,VALID,0,VALID,100,VALID,-0.0509425,VALID,18.2655,VALID,184,VALID,0,
2007-11-25, 00:55:00,VALID,918.325,VALID,0,VALID,100,VALID,-0.0509425,VALID,18.3169,VALID,184,VALID,0,
2007-11-25, 00:56:00,VALID,918.299,VALID,0,VALID,100,VALID,-0.0339617,VALID,18.3813,VALID,184,VALID,0,
2007-11-25, 00:57:00,VALID,918.273,VALID,0,VALID,100,VALID,-0.0169808,VALID,18.4362,VALID,177,VALID,0.391158,
2007-11-25, 00:58:00,VALID,918.245,VALID,0,VALID,100,VALID,-0.0339617,VALID,18.5046,VALID,150,VALID,0.725472,
2007-11-25, 00:59:00,VALID,918.22,VALID,0,VALID,99.8115,VALID,-0.0339617,VALID,18.55,VALID,150,VALID,0.862995,
2007-11-25, 01:00:00,VALID,918.184,VALID,0,VALID,99.3085,VALID,-0.0679233,VALID,18.5303,VALID,169,VALID,1.01918,
2007-11-25, 01:01:00,VALID,918.15,VALID,0,VALID,99.1025,VALID,-0.0169808,VALID,18.4851,VALID,178,VALID,1.17205,
2007-11-25, 01:02:00,VALID,918.126,VALID,0,VALID,99.0198,VALID,-0.0339617,VALID,18.4332,VALID,192,VALID,0.959223,
2007-11-25, 01:03:00,VALID,918.108,VALID,0,VALID,98.9792,VALID,-0.0679233,VALID,18.3781,VALID,201,VALID,0.914993,
2007-11-25, 01:04:00,VALID,918.081,VALID,0,VALID,99.2347,VALID,-0.0169808,VALID,18.3524,VALID,201,VALID,0.709549,
2007-11-25, 01:05:00,VALID,918.079,VALID,0,VALID,99.3937,VALID,-0.0339617,VALID,18.313,VALID,201,VALID,0.527166,
2007-11-25, 01:06:00,VALID,918.069,VALID,0,VALID,99.5387,VALID,-0.0169808,VALID,18.2908,VALID,201,VALID,0.398996,
2007-11-25, 01:07:00,VALID,918.067,VALID,0,VALID,99.6989,VALID,-0.0339617,VALID,18.2616,VALID,201,VALID,0.000390625,
2007-11-25, 01:08:00,VALID,918.049,VALID,0,VALID,99.8286,VALID,-0.0679233,VALID,18.2484,VALID,201,VALID,0.260099,
2007-11-25, 01:09:00,VALID,918.035,VALID,0,VALID,99.8604,VALID,-0.0339617,VALID,18.2356,VALID,201,VALID,0.397104,
2007-11-25, 01:10:00,VALID,918.031,VALID,0,VALID,99.6455,VALID,-0.0169808,VALID,18.1803,VALID,201,VALID,0.521205,
2007-11-25, 01:11:00,VALID,918.016,VALID,0,VALID,99.8472,VALID,-0.0679233,VALID,18.1416,VALID,199,VALID,0.555078,
2007-11-25, 01:12:00,VALID,918.004,VALID,0,VALID,100,VALID,-0.0509425,VALID,18.1868,VALID,193,VALID,0.665587,
2007-11-25, 01:13:00,VALID,917.994,VALID,0,VALID,100,VALID,-0.0509425,VALID,18.2678,VALID,191,VALID,0.545541,
2007-11-25, 01:14:00,VALID,917.978,VALID,0,VALID,100,VALID,0,VALID,18.2843,VALID,191,VALID,0.451079,
2007-11-25, 01:15:00,VALID,917.969,VALID,0,VALID,100,VALID,-0.0339617,VALID,18.2479,VALID,192,VALID,0.420201,
2007-11-25, 01:16:00,VALID,917.967,VALID,0,VALID,100,VALID,-0.0169808,VALID,18.2122,VALID,191,VALID,0.298399,
2007-11-25, 01:17:00,VALID,917.957,VALID,0,VALID,100,VALID,-0.0169808,VALID,18.1768,VALID,192,VALID,0.298651,
2007-11-25, 01:18:00,VALID,917.954,VALID,0,VALID,99.9542,VALID,-0.0679233,VALID,18.1351,VALID,192,VALID,0.329514,
2007-11-25, 01:19:00,VALID,917.944,VALID,0,VALID,99.7281,VALID,-0.0339617,VALID,18.0797,VALID,191,VALID,0.387463,
2007-11-25, 01:20:00,VALID,917.938,VALID,0,VALID,99.8764,VALID,-0.0509425,VALID,18.0311,VALID,192,VALID,0.162538,
2007-11-25, 01:21:00,VALID,917.929,VALID,0,VALID,100,VALID,-0.0169808,VALID,18.0209,VALID,195,VALID,0,
2007-11-25, 01:22:00,VALID,917.912,VALID,0,VALID,100,VALID,-0.0339617,VALID,18.0309,VALID,196,VALID,0,
2007-11-25, 01:23:00,VALID,917.885,VALID,0,VALID,100,VALID,-0.0339617,VALID,18.0276,VALID,196,VALID,0,
2007-11-25, 01:24:00,VALID,917.867,VALID,0,VALID,100,VALID,-0.0509425,VALID,17.9794,VALID,196,VALID,0,
2007-11-25, 01:25:00,VALID,917.849,VALID,0,VALID,100,VALID,-0.0169808,VALID,17.9398,VALID,195,VALID,0,
2007-11-25, 01:26:00,VALID,917.836,VALID,0,VALID,100,VALID,-0.0169808,VALID,17.9009,VALID,195,VALID,0,
2007-11-25, 01:27:00,VALID,917.824,VALID,0,VALID,100,VALID,-0.101885,VALID,17.8761,VALID,195,VALID,0,
2007-11-25, 01:28:00,VALID,917.818,VALID,0,VALID,100,VALID,-0.101885,VALID,17.8469,VALID,195,VALID,0,
2007-11-25, 01:29:00,VALID,917.807,VALID,0,VALID,100,VALID,-0.0849042,VALID,17.8238,VALID,195,VALID,0,
2007-11-25, 01:30:00,VALID,917.807,VALID,0,VALID,100,VALID,-0.101885,VALID,17.85,VALID,195,VALID,0,
2007-11-25, 01:31:00,VALID,917.788,VALID,0,VALID,100,VALID,-0.0679233,VALID,17.9602,VALID,190,VALID,0,
2007-11-25, 01:32:00,VALID,917.768,VALID,0,VALID,100,VALID,-0.0849042,VALID,18.038,VALID,190,VALID,0,
2007-11-25, 01:33:00,VALID,917.759,VALID,0,VALID,100,VALID,-0.0849042,VALID,18.0772,VALID,190,VALID,0,
2007-11-25, 01:34:00,VALID,917.732,VALID,0,VALID,100,VALID,-0.101885,VALID,17.9864,VALID,190,VALID,0,
2007-11-25, 01:35:00,VALID,917.704,VALID,0,VALID,100,VALID,-0.101885,VALID,17.8599,VALID,190,VALID,0,
2007-11-25, 01:36:00,VALID,917.687,VALID,0,VALID,100,VALID,-0.0849042,VALID,17.8113,VALID,190,VALID,0,
2007-11-25, 01:37:00,VALID,917.682,VALID,0,VALID,100,VALID,-0.101885,VALID,17.7693,VALID,190,VALID,0,
2007-11-25, 01:38:00,VALID,917.689,VALID,0,VALID,100,VALID,-0.101885,VALID,17.7719,VALID,190,VALID,0,
2007-11-25, 01:39:00,VALID,917.68,VALID,0,VALID,100,VALID,-0.118866,VALID,17.7724,VALID,190,VALID,0,
2007-11-25, 01:40:00,VALID,917.688,VALID,0,VALID,100,VALID,-0.118866,VALID,17.7659,VALID,190,VALID,0,
2007-11-25, 01:41:00,VALID,917.675,VALID,0,VALID,100,VALID,-0.101885,VALID,17.792,VALID,190,VALID,0,
2007-11-25, 01:42:00,VALID,917.663,VALID,0,VALID,100,VALID,-0.0169808,VALID,17.7872,VALID,190,VALID,0,
2007-11-25, 01:43:00,VALID,917.652,VALID,0,VALID,100,VALID,0,VALID,17.8359,VALID,190,VALID,0,
2007-11-25, 01:44:00,VALID,917.621,VALID,0,VALID,100,VALID,0,VALID,17.9102,VALID,186,VALID,0.311111,
2007-11-25, 01:45:00,VALID,917.627,VALID,0,VALID,100,VALID,0,VALID,17.9917,VALID,183,VALID,0.543229,
2007-11-25, 01:46:00,VALID,917.613,VALID,0,VALID,100,VALID,-0.0169808,VALID,18.0462,VALID,142,VALID,0.458097,
2007-11-25, 01:47:00,VALID,917.599,VALID,0,VALID,100,VALID,-0.0339617,VALID,18.1344,VALID,103,VALID,0.0341797,
2007-11-25, 01:48:00,VALID,917.593,VALID,0,VALID,100,VALID,-0.0679233,VALID,18.1963,VALID,103,VALID,0,
2007-11-25, 01:49:00,VALID,917.593,VALID,0,VALID,100,VALID,-0.0339617,VALID,18.2481,VALID,103,VALID,0,
2007-11-25, 01:50:00,VALID,917.583,VALID,0,VALID,100,VALID,-0.0339617,VALID,18.303,VALID,103,VALID,0,
2007-11-25, 01:51:00,VALID,917.569,VALID,0,VALID,100,VALID,-0.0169808,VALID,18.3552,VALID,104,VALID,0,
2007-11-25, 01:52:00,VALID,917.563,VALID,0,VALID,100,VALID,-0.0509425,VALID,18.3742,VALID,107,VALID,0,
2007-11-25, 01:53:00,VALID,917.544,VALID,0,VALID,100,VALID,-0.0169808,VALID,18.3906,VALID,112,VALID,0,
2007-11-25, 01:54:00,VALID,917.526,VALID,0,VALID,100,VALID,0,VALID,18.4163,VALID,126,VALID,0,
2007-11-25, 01:55:00,VALID,917.518,VALID,0,VALID,100,VALID,0,VALID,18.4291,VALID,150,VALID,0,
2007-11-25, 01:56:00,VALID,917.498,VALID,0,VALID,100,VALID,0,VALID,18.4455,VALID,155,VALID,0,
2007-11-25, 01:57:00,VALID,917.476,VALID,0,VALID,100,VALID,-0.0339617,VALID,18.4453,VALID,155,VALID,0,
2007-11-25, 01:58:00,VALID,917.451,VALID,0,VALID,100,VALID,-0.0169808,VALID,18.4423,VALID,155,VALID,0,
2007-11-25, 01:59:00,VALID,917.443,VALID,0,VALID,100,VALID,0,VALID,18.3901,VALID,161,VALID,0,
2007-11-25, 02:00:00,VALID,917.449,VALID,0,VALID,99.9321,VALID,-0.0339617,VALID,18.3058,VALID,174,VALID,0.201451,
2007-11-25, 02:01:00,VALID,917.449,VALID,0,VALID,99.7192,VALID,-0.0169808,VALID,18.2122,VALID,183,VALID,0.8125,
2007-11-25, 02:02:00,VALID,917.444,VALID,0,VALID,99.4967,VALID,-0.0509425,VALID,18.1117,VALID,197,VALID,1.19531,
2007-11-25, 02:03:00,VALID,917.428,VALID,0,VALID,99.9484,VALID,0,VALID,18.0631,VALID,197,VALID,0.870028,
2007-11-25, 02:04:00,VALID,917.419,VALID,0,VALID,100,VALID,-0.0169808,VALID,18.0337,VALID,181,VALID,0.814406,
2007-11-25, 02:05:00,VALID,917.404,VALID,0,VALID,100,VALID,-0.0169808,VALID,18.0144,VALID,171,VALID,0.982617,
2007-11-25, 02:06:00,VALID,917.408,VALID,0,VALID,100,VALID,-0.0169808,VALID,18.0042,VALID,175,VALID,1.08136,
2007-11-25, 02:07:00,VALID,917.403,VALID,0,VALID,100,VALID,-0.0169808,VALID,17.9883,VALID,182,VALID,1.08498,
2007-11-25, 02:08:00,VALID,917.401,VALID,0,VALID,100,VALID,-0.0339617,VALID,17.9785,VALID,184,VALID,1.13594,
2007-11-25, 02:09:00,VALID,917.399,VALID,0,VALID,100,VALID,0,VALID,17.9684,VALID,192,VALID,1.0483,
2007-11-25, 02:10:00,VALID,917.401,VALID,0,VALID,100,VALID,0,VALID,17.9723,VALID,194,VALID,0.960747,
2007-11-25, 02:11:00,VALID,917.394,VALID,0,VALID,100,VALID,0,VALID,17.9554,VALID,192,VALID,0.861328,
2007-11-25, 02:12:00,VALID,917.411,VALID,0,VALID,100,VALID,-0.0169808,VALID,17.9494,VALID,192,VALID,0.636186,
2007-11-25, 02:13:00,VALID,917.415,VALID,0,VALID,100,VALID,-0.0339617,VALID,17.9364,VALID,192,VALID,0.748001,
2007-11-25, 02:14:00,VALID,917.433,VALID,0,VALID,100,VALID,0,VALID,17.9457,VALID,192,VALID,0.438227,
2007-11-25, 02:15:00,VALID,917.431,VALID,0,VALID,100,VALID,0.0169808,VALID,17.9065,VALID,192,VALID,0.12965,
2007-11-25, 02:16:00,VALID,917.442,VALID,0,VALID,100,VALID,0,VALID,17.8611,VALID,192,VALID,0.186228,
2007-11-25, 02:17:00,VALID,917.443,VALID,0,VALID,100,VALID,-0.0169808,VALID,17.8317,VALID,192,VALID,0,
2007-11-25, 02:18:00,VALID,917.437,VALID,0,VALID,100,VALID,0,VALID,17.8264,VALID,192,VALID,0,
2007-11-25, 02:19:00,VALID,917.429,VALID,0,VALID,100,VALID,-0.0339617,VALID,17.7967,VALID,192,VALID,0,
2007-11-25, 02:20:00,VALID,917.424,VALID,0,VALID,100,VALID,0,VALID,17.7678,VALID,192,VALID,0,
2007-11-25, 02:21:00,VALID,917.419,VALID,0,VALID,100,VALID,-0.0169808,VALID,17.7583,VALID,192,VALID,0,
2007-11-25, 02:22:00,VALID,917.429,VALID,0,VALID,100,VALID,0,VALID,17.7513,VALID,192,VALID,0,
2007-11-25, 02:23:00,VALID,917.438,VALID,0,VALID,100,VALID,0,VALID,17.7412,VALID,192,VALID,0,
2007-11-25, 02:24:00,VALID,917.434,VALID,0,VALID,100,VALID,0,VALID,17.7414,VALID,248,VALID,0.268043,
2007-11-25, 02:25:00,VALID,917.438,VALID,0,VALID,100,VALID,0,VALID,17.8516,VALID,327,VALID,0.734722,
2007-11-25, 02:26:00,VALID,917.434,VALID,0,VALID,100,VALID,0.0339617,VALID,18.001,VALID,332,VALID,0.46224,
2007-11-25, 02:27:00,VALID,917.426,VALID,0,VALID,100,VALID,0,VALID,18.0633,VALID,332,VALID,0.449491,
2007-11-25, 02:28:00,VALID,917.436,VALID,0,VALID,100,VALID,-0.0169808,VALID,18.0925,VALID,332,VALID,0.0866815,
2007-11-25, 02:29:00,VALID,917.433,VALID,0,VALID,100,VALID,0,VALID,18.118,VALID,332,VALID,0,
2007-11-25, 02:30:00,VALID,917.443,VALID,0,VALID,100,VALID,-0.0339617,VALID,18.1319,VALID,332,VALID,0,
2007-11-25, 02:31:00,VALID,917.455,VALID,0,VALID,100,VALID,-0.0339617,VALID,18.1184,VALID,332,VALID,0,
2007-11-25, 02:32:00,VALID,917.456,VALID,0,VALID,100,VALID,-0.0339617,VALID,18.115,VALID,333,VALID,0,
2007-11-25, 02:33:00,VALID,917.441,VALID,0,VALID,100,VALID,-0.0339617,VALID,18.115,VALID,332,VALID,0,
2007-11-25, 02:34:00,VALID,917.445,VALID,0,VALID,100,VALID,-0.0169808,VALID,18.102,VALID,333,VALID,0,
2007-11-25, 02:35:00,VALID,917.426,VALID,0,VALID,100,VALID,-0.0509425,VALID,18.1184,VALID,332,VALID,0,
2007-11-25, 02:36:00,VALID,917.43,VALID,0,VALID,100,VALID,-0.0169808,VALID,18.1444,VALID,333,VALID,0,
2007-11-25, 02:37:00,VALID,917.435,VALID,0,VALID,100,VALID,-0.0339617,VALID,18.1703,VALID,333,VALID,0,
2007-11-25, 02:38:00,VALID,917.437,VALID,0,VALID,100,VALID,0,VALID,18.1863,VALID,332,VALID,0,
2007-11-25, 02:39:00,VALID,917.454,VALID,0,VALID,100,VALID,-0.0509425,VALID,18.1608,VALID,333,VALID,0,
2007-11-25, 02:40:00,VALID,917.444,VALID,0,VALID,100,VALID,-0.0339617,VALID,18.1184,VALID,333,VALID,0,
2007-11-25, 02:41:00,VALID,917.433,VALID,0,VALID,100,VALID,-0.0339617,VALID,17.9628,VALID,333,VALID,0,
2007-11-25, 02:42:00,VALID,917.419,VALID,0,VALID,100,VALID,-0.0849042,VALID,17.8298,VALID,332,VALID,0,
2007-11-25, 02:43:00,VALID,917.406,VALID,0,VALID,100,VALID,-0.0679233,VALID,17.7295,VALID,333,VALID,0,
2007-11-25, 02:44:00,VALID,917.389,VALID,0,VALID,100,VALID,-0.0509425,VALID,17.7261,VALID,332,VALID,0,
2007-11-25, 02:45:00,VALID,917.378,VALID,0,VALID,100,VALID,-0.0509425,VALID,17.7522,VALID,333,VALID,0,
2007-11-25, 02:46:00,VALID,917.378,VALID,0,VALID,100,VALID,-0.0849042,VALID,17.7267,VALID,332,VALID,0,
2007-11-25, 02:47:00,VALID,917.363,VALID,0,VALID,100,VALID,-0.0509425,VALID,17.7295,VALID,332,VALID,0,
2007-11-25, 02:48:00,VALID,917.348,VALID,0,VALID,100,VALID,-0.0169808,VALID,17.768,VALID,333,VALID,0,
2007-11-25, 02:49:00,VALID,917.343,VALID,0,VALID,100,VALID,-0.0679233,VALID,17.7944,VALID,332,VALID,0,
2007-11-25, 02:50:00,VALID,917.313,VALID,0,VALID,100,VALID,-0.0679233,VALID,17.7717,VALID,333,VALID,0,
2007-11-25, 02:51:00,VALID,917.311,VALID,0,VALID,100,VALID,-0.0679233,VALID,17.8043,VALID,333,VALID,0,
2007-11-25, 02:52:00,VALID,917.304,VALID,0,VALID,100,VALID,-0.101885,VALID,17.8493,VALID,332,VALID,0,
2007-11-25, 02:53:00,VALID,917.292,VALID,0,VALID,100,VALID,-0.0679233,VALID,17.8754,VALID,333,VALID,0,
2007-11-25, 02:54:00,VALID,917.29,VALID,0,VALID,100,VALID,-0.0509425,VALID,17.8292,VALID,332,VALID,0,
2007-11-25, 02:55:00,VALID,917.273,VALID,0,VALID,100,VALID,-0.0169808,VALID,17.8171,VALID,332,VALID,0,
2007-11-25, 02:56:00,VALID,917.266,VALID,0,VALID,100,VALID,-0.0339617,VALID,17.7974,VALID,332,VALID,0,
2007-11-25, 02:57:00,VALID,917.245,VALID,0,VALID,100,VALID,-0.0169808,VALID,17.765,VALID,332,VALID,0,
2007-11-25, 02:58:00,VALID,917.253,VALID,0,VALID,100,VALID,-0.0679233,VALID,17.7455,VALID,332,VALID,0,
2007-11-25, 02:59:00,VALID,917.233,VALID,0,VALID,100,VALID,-0.0509425,VALID,17.723,VALID,333,VALID,0,
2007-11-25, 03:00:00,VALID,917.237,VALID,0,VALID,100,VALID,-0.0849042,VALID,17.7101,VALID,332,VALID,0,
2007-11-25, 03:01:00,VALID,917.215,VALID,0,VALID,100,VALID,-0.0679233,VALID,17.7423,VALID,332,VALID,0,
2007-11-25, 03:02:00,VALID,917.205,VALID,0,VALID,100,VALID,-0.0339617,VALID,17.7684,VALID,332,VALID,0,
2007-11-25, 03:03:00,VALID,917.177,VALID,0,VALID,100,VALID,-0.0679233,VALID,17.7527,VALID,332,VALID,0,
2007-11-25, 03:04:00,VALID,917.159,VALID,0,VALID,100,VALID,-0.0509425,VALID,17.752,VALID,333,VALID,0,
2007-11-25, 03:05:00,VALID,917.133,VALID,0,VALID,100,VALID,-0.0849042,VALID,17.8041,VALID,336,VALID,0,
2007-11-25, 03:06:00,VALID,917.113,VALID,0,VALID,100,VALID,-0.0339617,VALID,17.8236,VALID,336,VALID,0,
2007-11-25, 03:07:00,VALID,917.096,VALID,0,VALID,100,VALID,-0.0339617,VALID,17.8724,VALID,336,VALID,0,
2007-11-25, 03:08:00,VALID,917.088,VALID,0,VALID,100,VALID,-0.0849042,VALID,17.8822,VALID,336,VALID,0,
2007-11-25, 03:09:00,VALID,917.086,VALID,0,VALID,100,VALID,-0.0849042,VALID,17.8791,VALID,336,VALID,0,
2007-11-25, 03:10:00,VALID,917.065,VALID,0,VALID,100,VALID,-0.0169808,VALID,17.8752,VALID,336,VALID,0,
2007-11-25, 03:11:00,VALID,917.053,VALID,0,VALID,100,VALID,0,VALID,17.8979,VALID,336,VALID,0,
2007-11-25, 03:12:00,VALID,917.05,VALID,0,VALID,100,VALID,-0.0679233,VALID,17.95,VALID,336,VALID,0,
2007-11-25, 03:13:00,VALID,917.044,VALID,0,VALID,100,VALID,-0.101885,VALID,17.9885,VALID,336,VALID,0,
2007-11-25, 03:14:00,VALID,917.042,VALID,0,VALID,100,VALID,-0.0339617,VALID,18.0279,VALID,336,VALID,0,
2007-11-25, 03:15:00,VALID,917.049,VALID,0,VALID,100,VALID,-0.0679233,VALID,18.0404,VALID,336,VALID,0,
2007-11-25, 03:16:00,VALID,917.038,VALID,0,VALID,100,VALID,-0.0509425,VALID,18.0443,VALID,336,VALID,0,
2007-11-25, 03:17:00,VALID,917.038,VALID,0,VALID,100,VALID,-0.0679233,VALID,18.0084,VALID,336,VALID,0,
2007-11-25, 03:18:00,VALID,917.035,VALID,0,VALID,100,VALID,-0.0849042,VALID,17.9889,VALID,336,VALID,0,
2007-11-25, 03:19:00,VALID,917.025,VALID,0,VALID,100,VALID,-0.0679233,VALID,18.0082,VALID,336,VALID,0,
2007-11-25, 03:20:00,VALID,917.007,VALID,0,VALID,100,VALID,-0.0509425,VALID,18.0858,VALID,336,VALID,0,
2007-11-25, 03:21:00,VALID,916.995,VALID,0,VALID,100,VALID,-0.0339617,VALID,18.1736,VALID,336,VALID,0,
2007-11-25, 03:22:00,VALID,916.997,VALID,0,VALID,100,VALID,-0.0169808,VALID,18.2317,VALID,336,VALID,0,
2007-11-25, 03:23:00,VALID,917.005,VALID,0,VALID,100,VALID,-0.0509425,VALID,18.313,VALID,336,VALID,0,
2007-11-25, 03:24:00,VALID,917.006,VALID,0,VALID,100,VALID,-0.0679233,VALID,18.3616,VALID,336,VALID,0,
2007-11-25, 03:25:00,VALID,917.039,VALID,0,VALID,100,VALID,-0.0509425,VALID,18.3846,VALID,336,VALID,0,
2007-11-25, 03:26:00,VALID,917.042,VALID,0,VALID,100,VALID,-0.0339617,VALID,18.326,VALID,336,VALID,0,
2007-11-25, 03:27:00,VALID,917.045,VALID,0,VALID,100,VALID,-0.0849042,VALID,18.2868,VALID,336,VALID,0,
2007-11-25, 03:28:00,VALID,917.05,VALID,0,VALID,100,VALID,-0.0339617,VALID,18.2674,VALID,336,VALID,0,
2007-11-25, 03:29:00,VALID,917.026,VALID,0,VALID,100,VALID,-0.0169808,VALID,18.2514,VALID,336,VALID,0,
2007-11-25, 03:30:00,VALID,917.023,VALID,0,VALID,100,VALID,-0.0679233,VALID,18.2449,VALID,336,VALID,0,
2007-11-25, 03:31:00,VALID,917.015,VALID,0,VALID,100,VALID,-0.0509425,VALID,18.2352,VALID,336,VALID,0,
2007-11-25, 03:32:00,VALID,917.011,VALID,0,VALID,100,VALID,-0.0679233,VALID,18.2609,VALID,336,VALID,0,
2007-11-25, 03:33:00,VALID,917.004,VALID,0,VALID,100,VALID,-0.0169808,VALID,18.2773,VALID,336,VALID,0,
2007-11-25, 03:34:00,VALID,916.993,VALID,0,VALID,100,VALID,-0.0339617,VALID,18.2155,VALID,336,VALID,0,
2007-11-25, 03:35:00,VALID,916.99,VALID,0,VALID,100,VALID,-0.0169808,VALID,18.1705,VALID,336,VALID,0,
2007-11-25, 03:36:00,VALID,916.99,VALID,0,VALID,100,VALID,-0.0169808,VALID,18.1768,VALID,336,VALID,0,
2007-11-25, 03:37:00,VALID,916.984,VALID,0,VALID,100,VALID,-0.0169808,VALID,18.1828,VALID,337,VALID,0,
2007-11-25, 03:38:00,VALID,916.993,VALID,0,VALID,100,VALID,-0.0169808,VALID,18.1601,VALID,337,VALID,0,
2007-11-25, 03:39:00,VALID,916.997,VALID,0,VALID,100,VALID,-0.0169808,VALID,18.1504,VALID,23,VALID,0,
2007-11-25, 03:40:00,VALID,916.999,VALID,0,VALID,100,VALID,-0.0849042,VALID,18.1476,VALID,77,VALID,0,
2007-11-25, 03:41:00,VALID,916.996,VALID,0,VALID,100,VALID,0,VALID,18.1541,VALID,77,VALID,0,
2007-11-25, 03:42:00,VALID,917.005,VALID,0,VALID,100,VALID,-0.0339617,VALID,18.1766,VALID,77,VALID,0,
2007-11-25, 03:43:00,VALID,917.009,VALID,0,VALID,100,VALID,-0.0849042,VALID,18.203,VALID,77,VALID,0,
2007-11-25, 03:44:00,VALID,917.035,VALID,0,VALID,100,VALID,-0.101885,VALID,18.2129,VALID,77,VALID,0,
2007-11-25, 03:45:00,VALID,917.054,VALID,0,VALID,100,VALID,-0.0679233,VALID,18.219,VALID,77,VALID,0,
2007-11-25, 03:46:00,VALID,917.077,VALID,0,VALID,100,VALID,-0.0679233,VALID,18.2222,VALID,77,VALID,0,